Regional Weather Roundup
Issued by NWS

Home | Current Version | Previous Version | Graphics & Text | Print | Product List | Glossary On
Versions: 1 2 3 4 5 6 7 8 9 10 11 12 13 14 15 16 17 18 19 20 21 22 23 24 25 26 27 28 29 30 31 32 33 34 35 36 37 38 39 40 41 42 43 44 45 46 47 48 49 50
000
ASUS45 KBOU 020507
RWRCO

WEATHER ROUNDUP FOR COLORADO
NATIONAL WEATHER SERVICE DENVER/BOULDER CO
1100 PM MDT MON JUN 01 2015

NOTE: "FAIR" INDICATES FEW OR NO CLOUDS BELOW 12000 FEET WITH NO
SIGNIFICANT WEATHER AND/OR OBSTRUCTIONS TO VISIBILITY.

COZ001>005-013-030-031-020600-
...NORTHWEST COLORADO...

CITY           SKY/WX    TMP DP  RH WIND       PRES   REMARKS
CRAIG          PTCLDY    61  45  55 SE6       30.01R
HAYDEN         PTCLDY    61  43  51 NE7       30.04R
MEEKER         PTCLDY    62  39  42 NE6       30.03S
MOUNT WERNER   NOT AVBL
STEAMBOAT SPGS PTCLDY    58  41  53 CALM      30.08R
WALDEN         MOCLDY    54  37  54 S12G17    30.18S
$$

COZ006>008-011-020600-
...WEST CENTRAL VALLEYS...

CITY           SKY/WX    TMP DP  RH WIND       PRES   REMARKS
GRAND JUNCTION CLEAR     62  31  31 CALM      29.91R
MONTROSE       CLEAR     66  37  34 SE9       30.04R
EAGLE          MOCLDY    72  48  43 CALM      30.11R
RIFLE          PTCLDY    66  39  37 E12       29.98R
DELTA          CLEAR     67  32  26 E6        29.98R
NUCLA          CLEAR     70  18  13 CALM      30.08R
$$

COZ017>023-064>068-020600-
...SOUTHWEST COLORADO...

CITY           SKY/WX    TMP DP  RH WIND       PRES   REMARKS
DURANGO        PTCLDY    60  38  43 N5        30.15R
CORTEZ         CLEAR     70  20  15 S10       30.08R
PAGOSA SPRINGS MOCLDY    57  42  57 NE3       30.24S
TELLURIDE      PTCLDY    57  32  39 SE6       30.33S
WOLF CREEK PAS NOT AVBL
$$

COZ009-010-012-014-032>034-037-058>063-020600-
...CENTRAL COLORADO...

CITY           SKY/WX    TMP DP  RH WIND       PRES   REMARKS
ASPEN          PTCLDY    60  35  39 SE12      30.17S
BUENA VISTA    PTCLDY    53  36  53 CALM      30.25R
COPPER MTN     PTCLDY    50  28  43 S16G25    30.49F
BERTHOUD PASS  MOCLDY    41  34  75 W14G26    30.52F
COTTONWOOD PAS NOT AVBL
GUNNISON       PTCLDY    52  39  62 N9        30.25R
KREMMLING      PTCLDY    54  43  66 E6        30.16S
LEADVILLE      PTCLDY    47  30  51 CALM      30.34S
MONARCH PASS   PTCLDY    43  32  65 SW16      30.61S
SALIDA         PTCLDY    58  38  47 SW6       30.29S
SUNLIGHT       PTCLDY    52  30  43 CALM      30.40F
WILKERSON PASS CLOUDY    46  32  57 SW8       30.48S
$$

COZ069>075-020600-
...SAN LUIS VALLEY/SANGRE DE CRISTO MOUNTAINS...

CITY           SKY/WX    TMP DP  RH WIND       PRES   REMARKS
ALAMOSA        PTCLDY    52  41  66 CALM      30.23S
LA VETA PASS   PTCLDY   N/A N/A N/A MISG      30.42S
SAGUACHE       CLEAR     52  41  66 N10       30.26F
$$

COZ035-036-038>040-020600-
...NORTHERN COLORADO FRONT RANGE...

CITY           SKY/WX    TMP DP  RH WIND       PRES   REMARKS
DENVER INTL AP PTCLDY    67  46  47 S20       30.01F
DMNS CITY PARK NOT AVBL
AURORA         PTCLDY    65  46  51 S22       30.03F
FRONT RANGE AP NOT AVBL
ERIE MUNI ARPT PTCLDY    61  50  67 W5        30.00S
BOULDER MUN AP PTCLDY    66  39  37 SW5       30.00F
CENTENNIAL     PTCLDY    64  47  53 S15       30.04F
BROOMFIELD     NOT AVBL
FORT COLLINS   MOCLDY    61  50  67 S7        30.00F
LONGMONT       MOCLDY    62  49  64 CALM      30.01F
$$

COZ041-046-047-076>085-087-088-020600-
...PIKES PEAK/PALMER DIVIDE AND SOUTHERN FOOTHILLS...

CITY           SKY/WX    TMP DP  RH WIND       PRES   REMARKS
COLO. SPRINGS  MOCLDY    62  46  55 S12       30.16R
A. F. ACADEMY  PTCLDY    60  45  59 S9        30.15S
ELLICOTT       MOCLDY     1  32 100 W5        30.14R WCI  -9
FALCON         MOCLDY    57  47  69 SW7       30.20S
FORT CARSON    NOT AVBL
LIMON          CLOUDY    65  49  56 SW17      30.05S
MONUMENT HILL  MOCLDY    55  45  67 MISG      30.17F
TRINIDAD       PTCLDY    67  44  43 CALM      30.14S
$$

COZ042>045-048>051-090-091-020600-
...NORTHEAST COLORADO...

CITY           SKY/WX    TMP DP  RH WIND       PRES   REMARKS
GREELEY ARPT   MOCLDY    63  52  67 S9        30.00F
AKRON          CLOUDY    63  56  78 E12       30.02S
BURLINGTON     CLOUDY    69  62  78 S13       30.02S
WRAY           CLOUDY    68  57  68 N22G28    29.99R
STERLING       MOCLDY    63  54  72 E13G20    29.98R
HOLYOKE        NOT AVBL
FORT MORGAN    MOCLDY    61 -12   5 E14       30.00S
$$

COZ086-089-092>099-020600-
...SOUTHEAST COLORADO...

CITY           SKY/WX    TMP DP  RH WIND       PRES   REMARKS
PUEBLO         MOCLDY    63  54  72 SW6       30.06F
LA JUNTA       CLOUDY    70  50  49 MISG      30.00F
LAMAR          CLOUDY    69  55  60 E6        29.99F
SPRINGFIELD      N/A     63  54  72 SW12      30.08R
$$



USA.gov is the U.S. government's official web portal to all federal, state and local government web resources and services.